Regional Weather Roundup
Issued by NWS

Home | Current Version | Previous Version | Graphics & Text | Print | Product List | Glossary On
Versions: 1 2 3 4 5 6 7 8 9 10 11 12 13 14 15 16 17 18 19 20 21 22 23 24 25 26 27 28 29 30 31 32 33 34 35 36 37 38 39 40 41 42 43 44 45 46 47 48 49 50
000
ASUS43 KLSX 242257
RWRMO

WEATHER SUMMARY FOR MISSOURI
NATIONAL WEATHER SERVICE SPRINGFIELD MO
600 PM CDT FRI MAR 24 2017

NOTE: "FAIR" INDICATES FEW OR NO CLOUDS BELOW 12,000 FEET WITH NO
       SIGNIFICANT WEATHER AND/OR OBSTRUCTIONS TO VISIBILITY.
       CURRENT SKY AND/OR WEATHER CONDITIONS ARE NOT AVAILABLE FOR
       CHILLICOTHE AND FARMINGTON.

MOZ001>031-035>038-043-044-053-054-250000-
...NORTHERN AND WESTERN MISSOURI...

CITY           SKY/WX    TMP DP  RH WIND       PRES   REMARKS
KANSAS CTY INT CLOUDY    60  59  96 SE10      29.84F
LEE`S SUMMIT   LGT RAIN  60  59  96 S9        29.85F
ST JOSEPH      CLOUDY    59  57  93 E8        29.85F
CHILLICOTHE      N/A     57  57 100 E8        29.90F

$$
MOZ066>068-077>081-088>096-101>105-250000-
...SOUTHWEST MISSOURI...

CITY           SKY/WX    TMP DP  RH WIND       PRES   REMARKS
SPRINGFIELD    RAIN      60  58  92 W3        29.91R FOG
JOPLIN         CLOUDY    62  59  90 SE10      29.82S
BRANSON        TSTM      61  57  88 SE9       29.91R FOG

$$
MOZ032>034-039>042-045>050-055>058-069>072-250000-
...CENTRAL MISSOURI...

CITY           SKY/WX    TMP DP  RH WIND       PRES   REMARKS
COLUMBIA       NOT AVBL
JEFFERSON CITY CLOUDY    67  56  67 NW9       29.92S
ROLLA          CLOUDY    71  53  52 S16       29.92F
SEDALIA        LGT RAIN  61  58  90 S12       29.92R FOG
WARRENSBURG    LGT RAIN  59  55  88 SE8       29.88S

$$
MOZ051-052-059>065-250000-
...EAST CENTRAL MISSOURI...

CITY           SKY/WX    TMP DP  RH WIND       PRES   REMARKS
ST LOUIS INTL  CLOUDY    76  53  44 S12       29.95F

$$
MOZ072>076-082>087-097>100-106>115-250000-
...SOUTH CENTRAL AND SOUTHEAST MISSOURI...

CITY           SKY/WX    TMP DP  RH WIND       PRES   REMARKS
CAPE GIRARDEAU CLOUDY    71  56  58 SE13G24   30.00F
POPLAR BLUFF   CLOUDY    73  59  61 S9        29.97S
WEST PLAINS    CLOUDY    71  53  52 S18G24    29.94F

$$



USA.gov is the U.S. government's official web portal to all federal, state and local government web resources and services.